Regional Weather Roundup
Issued by NWS

Home | Current Version | Previous Version | Graphics & Text | Print | Product List | Glossary On
Versions: 1 2 3 4 5 6 7 8 9 10 11 12 13 14 15 16 17 18 19 20 21 22 23 24 25 26 27 28 29 30 31 32 33 34 35 36 37 38 39 40 41 42 43 44 45 46 47 48 49 50
000
ASUS43 KOAX 291902
RWRNE

WEATHER ROUNDUP FOR NEBRASKA
NATIONAL WEATHER SERVICE OMAHA NE
200 PM CDT FRI APR 29 2016

NOTES: SATELLITE DATA IS BEING USED TO AUGMENT CLOUD COVER ABOVE
       12000 FEET.
       "FAIR" INDICATES FEW OR NO CLOUDS BELOW 12,000 FEET WITH NO
       SIGNIFICANT WEATHER AND/OR OBSTRUCTIONS TO VISIBILITY.

  * THESE STATIONS DO NOT REPORT WEATHER SUCH AS RAIN...SNOW OR FOG.

NEZ001>004-019>022-054>056-292000-
NEBRASKA PANHANDLE

CITY           SKY/WX    TMP DP  RH WIND       PRES   REMARKS
SCOTTSBLUFF    CLOUDY    46  35  65 E10       29.99F
ALLIANCE       CLOUDY    42  35  76 E14       30.00F
CHADRON        CLOUDY    43  36  76 NE12      30.05S
KIMBALL        LGT RAIN  37  36  94 NE13      29.97F WCI  29
SIDNEY         LGT RAIN  40  35  83 E14       29.97F WCI  32
$$

NEZ057>060-069>072-079>082-292000-
SOUTHWEST NEBRASKA

CITY           SKY/WX    TMP DP  RH WIND       PRES   REMARKS
NORTH PLATTE   CLOUDY    43  36  76 NE10      30.01F
IMPERIAL       LGT RAIN  41  37  86 E18       29.97F
LEXINGTON      CLOUDY    44  38  80 NE10      30.02F
MCCOOK         CLOUDY    42  38  85 E18       29.97F
$$

NEZ005>010-023>029-035>040-094-292000-
NORTH CENTRAL NEBRASKA

CITY           SKY/WX    TMP DP  RH WIND       PRES   REMARKS
VALENTINE      CLOUDY    40  37  89 E10       30.08S FOG     WCI  33
AINSWORTH      CLOUDY    40  38  96 E12       30.08F FOG     WCI  32
BROKEN BOW     LGT RAIN  42  40  92 NE8       30.04F FOG
ORD            CLOUDY    43  39  86 E10       30.05F
$$

NEZ041-046>049-061>064-073>077-083>087-292000-
SOUTH CENTRAL NEBRASKA

CITY           SKY/WX    TMP DP  RH WIND       PRES   REMARKS
GRAND ISLAND   CLOUDY    45  39  79 NE13      30.04F
AURORA         CLOUDY    46  41  83 NE15      30.02F
HASTINGS       CLOUDY    44  38  79 NE16      30.00F
KEARNEY *      CLOUDY    45  37  76 NE14      30.02F
YORK           CLOUDY    46  39  76 NE16      30.02F
$$

NEZ011>018-030>034-042>045-292000-
NORTHEAST NEBRASKA

CITY           SKY/WX    TMP DP  RH WIND       PRES   REMARKS
NORFOLK        CLOUDY    44  39  82 E8        30.08R
ALBION         CLOUDY    44  39  82 NE9       30.07S
BLAIR          CLOUDY    46  41  84 NE13      30.08R
COLUMBUS *     CLOUDY    45  34  65 NE10      30.08F
FREMONT        CLOUDY    46  40  80 NE8       30.08S
TEKAMAH        CLOUDY    47  41  80 E8        30.09R
$$

NEZ050>053-065>068-078-088>093-292000-
SOUTHEAST NEBRASKA

CITY           SKY/WX    TMP DP  RH WIND       PRES   REMARKS
LINCOLN        CLOUDY    48  40  73 NE14      30.06F
OMAHA EPPLEY   CLOUDY    49  41  74 E10       30.09R
BEATRICE       CLOUDY    47  40  78 NE14      30.02F
FALLS CITY     CLOUDY    51  44  77 E12       30.01F
NEBRASKA CITY  CLOUDY    49  42  78 E13       30.04S
$$

NEZ044-045-051>053-067-292000-
OMAHA AREA

CITY           SKY/WX    TMP DP  RH WIND       PRES   REMARKS
OMAHA EPPLEY   CLOUDY    49  41  74 E10       30.09R
BLAIR          CLOUDY    46  41  84 NE13      30.08R
FREMONT        CLOUDY    46  40  80 NE8       30.08S
OFFUTT AFB     CLOUDY    49  42  77 NE8       30.06S
WAHOO          CLOUDY    46  41  81 NE13      30.07F
$$




USA.gov is the U.S. government's official web portal to all federal, state and local government web resources and services.